This is the latest recevied weather packets stored in our database for station/object N4PWG. If no packets are shown the sender has not sent any weather packets the latest 10 day(s).
| Time | Temp. | Humidity | Pressure | Rain* | Wind** | Luminosity | Snow |
|---|---|---|---|---|---|---|---|
| 1777491185 | 21.67° C | 68% | 1031.8 hPa | 0 mm | - | 693 W/m² | - |
| 1777490880 | 21.11° C | 72% | 1031.8 hPa | 0 mm | - | 710 W/m² | - |
| 1777490576 | 20.56° C | 69% | 1032 hPa | 0 mm | - | 748 W/m² | - |
| 1777490272 | 20° C | 72% | 1032 hPa | 0 mm | - | 780 W/m² | - |
| 1777489970 | 20.56° C | 75% | 1031.9 hPa | 0 mm | - | 235 W/m² | - |
| 1777489668 | 20° C | 74% | 1031.9 hPa | 0 mm | - | 681 W/m² | - |
| 1777489364 | 20° C | 73% | 1032.1 hPa | 0 mm | - | 781 W/m² | - |
| 1777489061 | 20.56° C | 73% | 1031.8 hPa | 0 mm | - | 856 W/m² | - |
| 1777488758 | 20.56° C | 73% | 1032 hPa | 0 mm | - | 619 W/m² | - |
| 1777488456 | 20° C | 72% | 1032.1 hPa | 0 mm | - | 786 W/m² | - |
| 1777488154 | 20° C | 75% | 1032 hPa | 0 mm | - | 768 W/m² | - |
| 1777487852 | 19.44° C | 73% | 1032.2 hPa | 0 mm | - | 808 W/m² | - |
| 1777487550 | 19.44° C | 74% | 1032.4 hPa | 0 mm | - | 758 W/m² | - |
| 1777487246 | 19.44° C | 75% | 1032.4 hPa | 0 mm | - | 299 W/m² | - |
| 1777486942 | 18.89° C | 78% | 1032.5 hPa | 0 mm | - | 475 W/m² | - |
| 1777486639 | 18.89° C | 77% | 1032.2 hPa | 0 mm | - | 453 W/m² | - |
| 1777486337 | 18.89° C | 79% | 1032.3 hPa | 0 mm | - | 231 W/m² | - |
| 1777486034 | 18.89° C | 78% | 1032.5 hPa | 0 mm | - | 458 W/m² | - |
| 1777485731 | 18.89° C | 76% | 1032.4 hPa | 0 mm | - | 465 W/m² | - |
| 1777485426 | 18.89° C | 77% | 1032.6 hPa | 0 mm | - | 384 W/m² | - |
| 1777485122 | 18.89° C | 75% | 1032.7 hPa | 0 mm | - | 380 W/m² | - |
| 1777484819 | 18.33° C | 78% | 1032.7 hPa | 0 mm | - | 575 W/m² | - |
| 1777484515 | 18.33° C | 79% | 1032.9 hPa | 0 mm | - | 549 W/m² | - |
| 1777484213 | 18.33° C | 81% | 1032.7 hPa | 0 mm | - | 254 W/m² | - |
| 1777483909 | 18.33° C | 80% | 1032.7 hPa | 0 mm | - | 383 W/m² | - |
* Rain latest hour (hover to see other rain measurements)
** Current wind speed in m/s (hover to see current wind gust speed)